When you browse on this site, cookies collect data to enhance your experience and personalize the content and advertising you see.
Visit our Privacy Policy to learn more. By continuing to use the site, you agree to this use of cookies and data.
  • în România
  • Lista ţărilor
  • Pe 7 zile
  • Temperatura apei
  • Hartă satelitară
  • Meteo pe hartă
  • Widget-uri
  • user-avatar
    Intrare

    Meteo pe oră la Canillo

    Astăzi, 16 Iunie, Duminică

    Timp Temperatura Precipitaţii Vânt Presiune Umiditate
    00:00 +6°C° 0 mm 1 m/s 620 mmHg 91%
    01:00 +6°C° 0 mm 1 m/s 620 mmHg 90%
    02:00 +6°C° 0 mm 1 m/s 619 mmHg 90%
    03:00 +6°C° 0 mm 1 m/s 619 mmHg 89%
    04:00 +6°C° 0 mm 0 m/s 620 mmHg 84%
    05:00 +7°C° 0 mm 0 m/s 620 mmHg 79%
    06:00 +9°C° 0 mm 0 m/s 621 mmHg 72%
    07:00 +12°C° 0 mm 1 m/s 622 mmHg 63%
    08:00 +14°C° 0 mm 1 m/s 623 mmHg 55%
    09:00 +16°C° 0 mm 1 m/s 623 mmHg 47%
    10:00 +17°C° 0 mm 2 m/s 624 mmHg 45%
    11:00 +18°C° 0 mm 2 m/s 624 mmHg 43%
    12:00 +19°C° 0 mm 2 m/s 624 mmHg 41%
    13:00 +19°C° 0 mm 2 m/s 624 mmHg 42%
    14:00 +19°C° 0 mm 2 m/s 623 mmHg 43%
    15:00 +19°C° 0 mm 2 m/s 623 mmHg 45%
    16:00 +18°C° 0 mm 2 m/s 622 mmHg 52%
    17:00 +18°C° 0 mm 1 m/s 622 mmHg 58%
    18:00 +16°C° 0 mm 1 m/s 621 mmHg 65%
    19:00 +14°C° 0 mm 1 m/s 621 mmHg 71%
    20:00 +12°C° 0 mm 1 m/s 620 mmHg 77%
    21:00 +10°C° 0 mm 1 m/s 620 mmHg 84%
    22:00 +10°C° 0 mm 1 m/s 620 mmHg 82%
    23:00 +10°C° 0 mm 1 m/s 619 mmHg 80%

    Mâine, 17 Iunie, Luni

    Timp Temperatura Precipitaţii Vânt Presiune Umiditate
    00:00 +10°C° 0 mm 1 m/s 619 mmHg 78%
    01:00 +10°C° 0 mm 1 m/s 619 mmHg 77%
    02:00 +9°C° 0 mm 1 m/s 619 mmHg 75%
    03:00 +9°C° 0 mm 1 m/s 619 mmHg 74%
    04:00 +10°C° 0 mm 1 m/s 619 mmHg 71%
    05:00 +12°C° 0 mm 1 m/s 620 mmHg 69%
    06:00 +13°C° 0 mm 1 m/s 620 mmHg 66%
    07:00 +15°C° 0 mm 1 m/s 621 mmHg 58%
    08:00 +18°C° 0 mm 1 m/s 622 mmHg 50%
    09:00 +20°C° 0 mm 1 m/s 623 mmHg 42%
    10:00 +20°C° 0.1 mm 1 m/s 623 mmHg 42%
    11:00 +21°C° 0.1 mm 1 m/s 623 mmHg 41%
    12:00 +20°C° 0.1 mm 2 m/s 623 mmHg 41%
    13:00 +21°C° 0.3 mm 1 m/s 622 mmHg 44%
    14:00 +21°C° 0.3 mm 1 m/s 622 mmHg 46%
    15:00 +20°C° 0.3 mm 1 m/s 621 mmHg 49%
    16:00 +20°C° 0.2 mm 1 m/s 621 mmHg 55%
    17:00 +19°C° 0.2 mm 1 m/s 620 mmHg 60%
    18:00 +18°C° 0.2 mm 1 m/s 620 mmHg 65%
    19:00 +15°C° 0 mm 1 m/s 620 mmHg 70%
    20:00 +13°C° 0 mm 1 m/s 619 mmHg 74%
    21:00 +11°C° 0 mm 1 m/s 618 mmHg 79%
    22:00 +11°C° 0 mm 1 m/s 618 mmHg 78%
    23:00 +11°C° 0 mm 1 m/s 618 mmHg 77%

    Poimâine, 18 Iunie, Marţi

    Timp Temperatura Precipitaţii Vânt Presiune Umiditate
    00:00 +11°C° 0 mm 1 m/s 618 mmHg 76%
    01:00 +10°C° 0 mm 2 m/s 618 mmHg 74%
    02:00 +10°C° 0 mm 2 m/s 618 mmHg 73%
    03:00 +10°C° 0 mm 2 m/s 617 mmHg 71%
    04:00 +12°C° 0 mm 1 m/s 618 mmHg 67%
    05:00 +13°C° 0 mm 1 m/s 618 mmHg 64%
    06:00 +14°C° 0 mm 1 m/s 619 mmHg 61%
    07:00 +16°C° 0 mm 2 m/s 620 mmHg 53%
    08:00 +18°C° 0 mm 2 m/s 620 mmHg 45%
    09:00 +20°C° 0 mm 2 m/s 621 mmHg 37%
    10:00 +21°C° 0 mm 3 m/s 621 mmHg 35%
    11:00 +22°C° 0 mm 3 m/s 621 mmHg 34%
    12:00 +22°C° 0 mm 4 m/s 621 mmHg 33%
    13:00 +22°C° 0 mm 4 m/s 621 mmHg 33%
    14:00 +22°C° 0 mm 4 m/s 621 mmHg 34%
    15:00 +22°C° 0 mm 4 m/s 620 mmHg 34%
    16:00 +21°C° 0 mm 4 m/s 620 mmHg 40%
    17:00 +20°C° 0 mm 3 m/s 619 mmHg 45%
    18:00 +19°C° 0 mm 2 m/s 619 mmHg 51%
    19:00 +16°C° 0 mm 2 m/s 618 mmHg 56%
    20:00 +14°C° 0 mm 2 m/s 617 mmHg 62%
    21:00 +12°C° 0 mm 2 m/s 617 mmHg 67%
    22:00 +12°C° 0 mm 2 m/s 617 mmHg 66%
    23:00 +10°C° 0 mm 2 m/s 617 mmHg 65%

    19 Iunie, Miercuri

    Timp Temperatura Precipitaţii Vânt Presiune Umiditate
    00:00 +10°C° 0 mm 2 m/s 616 mmHg 64%
    01:00 +10°C° 0 mm 2 m/s 616 mmHg 61%
    02:00 +10°C° 0 mm 2 m/s 616 mmHg 58%
    03:00 +11°C° 0 mm 1 m/s 616 mmHg 55%
    04:00 +12°C° 0 mm 1 m/s 617 mmHg 55%
    05:00 +13°C° 0 mm 1 m/s 617 mmHg 55%
    06:00 +14°C° 0 mm 1 m/s 618 mmHg 55%
    07:00 +16°C° 0 mm 1 m/s 619 mmHg 47%
    08:00 +18°C° 0 mm 2 m/s 620 mmHg 40%
    09:00 +20°C° 0 mm 2 m/s 620 mmHg 33%
    10:00 +20°C° 0 mm 3 m/s 620 mmHg 32%
    11:00 +21°C° 0 mm 3 m/s 621 mmHg 32%
    12:00 +21°C° 0 mm 3 m/s 621 mmHg 31%
    13:00 +21°C° 0 mm 3 m/s 620 mmHg 33%
    14:00 +21°C° 0 mm 3 m/s 620 mmHg 34%
    15:00 +21°C° 0 mm 3 m/s 620 mmHg 35%
    16:00 +20°C° 0 mm 2 m/s 619 mmHg 43%
    17:00 +19°C° 0 mm 2 m/s 619 mmHg 52%
    18:00 +17°C° 0 mm 2 m/s 618 mmHg 60%
    19:00 +15°C° 0 mm 1 m/s 618 mmHg 65%
    20:00 +14°C° 0 mm 1 m/s 617 mmHg 70%
    21:00 +11°C° 0 mm 0 m/s 617 mmHg 75%
    22:00 +11°C° 0 mm 1 m/s 617 mmHg 73%
    23:00 +11°C° 0 mm 1 m/s 617 mmHg 71%

    20 Iunie, Joi

    Timp Temperatura Precipitaţii Vânt Presiune Umiditate
    00:00 +11°C° 0 mm 1 m/s 616 mmHg 69%
    01:00 +11°C° 0 mm 1 m/s 617 mmHg 69%
    02:00 +11°C° 0 mm 1 m/s 617 mmHg 68%
    03:00 +11°C° 0 mm 1 m/s 617 mmHg 67%
    04:00 +12°C° 0 mm 1 m/s 617 mmHg 69%
    05:00 +12°C° 0 mm 1 m/s 618 mmHg 71%
    06:00 +12°C° 0 mm 0 m/s 618 mmHg 73%
    07:00 +14°C° 0.1 mm 1 m/s 619 mmHg 68%
    08:00 +16°C° 0.1 mm 2 m/s 619 mmHg 63%
    09:00 +17°C° 0.1 mm 2 m/s 620 mmHg 58%
    10:00 +18°C° 0.1 mm 3 m/s 620 mmHg 55%
    11:00 +18°C° 0.1 mm 4 m/s 620 mmHg 53%
    12:00 +19°C° 0.1 mm 4 m/s 621 mmHg 50%
    13:00 +18°C° 0.1 mm 4 m/s 620 mmHg 54%
    14:00 +18°C° 0.1 mm 4 m/s 620 mmHg 58%
    15:00 +17°C° 0.1 mm 4 m/s 619 mmHg 62%
    16:00 +16°C° 0.3 mm 3 m/s 619 mmHg 69%
    17:00 +15°C° 0.3 mm 2 m/s 619 mmHg 76%
    18:00 +14°C° 0.3 mm 1 m/s 618 mmHg 83%
    19:00 +13°C° 0.3 mm 1 m/s 618 mmHg 88%
    20:00 +12°C° 0.3 mm 1 m/s 618 mmHg 92%
    21:00 +11°C° 0.3 mm 1 m/s 618 mmHg 96%
    22:00 +11°C° 0.2 mm 1 m/s 618 mmHg 96%
    23:00 +11°C° 0.2 mm 1 m/s 618 mmHg 96%

    21 Iunie, Vineri

    Timp Temperatura Precipitaţii Vânt Presiune Umiditate
    00:00 +10°C° 0.2 mm 1 m/s 618 mmHg 96%
    01:00 +10°C° 0.2 mm 1 m/s 618 mmHg 96%
    02:00 +10°C° 0.2 mm 1 m/s 618 mmHg 96%
    03:00 +9°C° 0.2 mm 0 m/s 618 mmHg 96%
    04:00 +11°C° 0.7 mm 1 m/s 618 mmHg 96%
    05:00 +11°C° 0.7 mm 1 m/s 618 mmHg 96%
    06:00 +11°C° 0.7 mm 1 m/s 619 mmHg 96%
    07:00 +11°C° 1 mm 1 m/s 619 mmHg 94%
    08:00 +11°C° 1 mm 1 m/s 619 mmHg 92%
    09:00 +12°C° 1 mm 1 m/s 619 mmHg 90%
    10:00 +13°C° 1 mm 1 m/s 620 mmHg 88%
    11:00 +13°C° 1 mm 2 m/s 620 mmHg 86%
    12:00 +14°C° 1 mm 2 m/s 620 mmHg 84%
    13:00 +14°C° 1.1 mm 2 m/s 620 mmHg 85%
    14:00 +14°C° 1.1 mm 2 m/s 620 mmHg 86%
    15:00 +13°C° 1.1 mm 1 m/s 619 mmHg 87%
    16:00 +13°C° 0.7 mm 1 m/s 619 mmHg 89%
    17:00 +13°C° 0.7 mm 1 m/s 619 mmHg 90%
    18:00 +12°C° 0.7 mm 1 m/s 619 mmHg 91%
    19:00 +11°C° 0.2 mm 1 m/s 619 mmHg 93%
    20:00 +10°C° 0.2 mm 1 m/s 619 mmHg 94%
    21:00 +9°C° 0.2 mm 1 m/s 619 mmHg 95%
    22:00 +9°C° 0 mm 1 m/s 619 mmHg 95%
    23:00 +8°C° 0 mm 0 m/s 618 mmHg 95%
    Arată mai mult